TimeEDT,TemperatureF,Dew PointF,Humidity,Sea Level PressureIn,VisibilityMPH,Wind Direction,Wind SpeedMPH,Gust SpeedMPH,PrecipitationIn,Events,Conditions,WindDirDegrees,DateUTC
12:53 AM,44.1,43.0,96,30.14,10.0,NNW,4.6,-,N/A,,Clear,330,2013-06-10 04:53:00
1:53 AM,44.1,42.1,93,30.13,10.0,NNW,4.6,-,N/A,,Clear,330,2013-06-10 05:53:00
2:53 AM,44.1,43.0,96,30.13,10.0,West,3.5,-,N/A,,Clear,260,2013-06-10 06:53:00
3:13 AM,42.8,41.0,93,30.12,1.8,Calm,Calm,-,N/A,,Clear,0,2013-06-10 07:13:00
3:20 AM,42.8,42.8,100,30.12,2.0,Calm,Calm,-,N/A,,Clear,0,2013-06-10 07:20:00
3:28 AM,42.8,41.0,93,30.12,10.0,Calm,Calm,-,N/A,,Clear,0,2013-06-10 07:28:00
3:41 AM,42.8,41.0,93,30.12,1.5,Calm,Calm,-,N/A,,Partly Cloudy,0,2013-06-10 07:41:00
3:43 AM,42.8,41.0,93,30.12,0.8,NW,3.5,-,N/A,,Mist,320,2013-06-10 07:43:00
3:53 AM,42.1,41.0,96,30.14,0.8,WNW,3.5,-,N/A,,Mist,290,2013-06-10 07:53:00
4:53 AM,41.0,39.9,96,30.16,0.2,WSW,5.8,-,N/A,Fog,Fog,250,2013-06-10 08:53:00
5:45 AM,42.8,42.8,100,30.14,1.8,Calm,Calm,-,N/A,,Scattered Clouds,0,2013-06-10 09:45:00
5:53 AM,43.0,43.0,100,30.15,10.0,Calm,Calm,-,N/A,,Scattered Clouds,0,2013-06-10 09:53:00
6:03 AM,42.8,42.8,100,30.15,1.0,SSW,4.6,-,N/A,,Mist,210,2013-06-10 10:03:00
6:10 AM,41.0,39.2,93,30.15,0.2,SW,5.8,-,N/A,Fog,Fog,220,2013-06-10 10:10:00
6:38 AM,44.6,44.6,100,30.16,2.0,WNW,3.5,-,N/A,,Mostly Cloudy,300,2013-06-10 10:38:00
6:53 AM,46.0,45.0,96,30.17,2.5,WNW,3.5,-,N/A,,Scattered Clouds,290,2013-06-10 10:53:00
7:00 AM,46.4,44.6,93,30.15,10.0,Calm,Calm,-,N/A,,Partly Cloudy,0,2013-06-10 11:00:00
7:53 AM,48.0,46.9,96,30.16,10.0,SSW,3.5,-,N/A,,Clear,200,2013-06-10 11:53:00
8:53 AM,55.9,48.0,75,30.15,10.0,WSW,3.5,-,N/A,,Scattered Clouds,250,2013-06-10 12:53:00
9:53 AM,57.9,48.9,72,30.15,10.0,West,4.6,-,N/A,,Overcast,260,2013-06-10 13:53:00
10:53 AM,64.0,50.0,60,30.14,10.0,WSW,8.1,-,N/A,,Mostly Cloudy,240,2013-06-10 14:53:00
11:53 AM,68.0,50.0,52,30.12,10.0,Variable,6.9,-,N/A,,Clear,0,2013-06-10 15:53:00
12:53 PM,71.1,48.9,45,30.09,10.0,WSW,10.4,16.1,N/A,,Clear,250,2013-06-10 16:53:00
1:53 PM,73.0,50.0,44,30.07,10.0,West,9.2,-,N/A,,Partly Cloudy,260,2013-06-10 17:53:00
2:53 PM,70.0,48.9,47,30.06,10.0,NW,4.6,-,0.00,,Mostly Cloudy,310,2013-06-10 18:53:00
3:53 PM,71.1,48.9,45,30.04,10.0,NW,5.8,-,N/A,,Mostly Cloudy,310,2013-06-10 19:53:00
4:53 PM,72.0,45.0,38,30.03,10.0,NW,5.8,-,N/A,,Scattered Clouds,310,2013-06-10 20:53:00
5:53 PM,73.9,45.0,35,30.02,10.0,WNW,10.4,-,N/A,,Clear,290,2013-06-10 21:53:00
6:53 PM,72.0,46.9,41,30.01,10.0,West,5.8,-,N/A,,Clear,280,2013-06-10 22:53:00
7:53 PM,71.1,46.0,41,30.01,10.0,WSW,3.5,-,N/A,,Clear,250,2013-06-10 23:53:00
8:53 PM,64.9,48.0,54,30.01,10.0,South,6.9,-,N/A,,Clear,170,2013-06-11 00:53:00
9:53 PM,64.0,52.0,65,30.01,10.0,SSW,5.8,-,N/A,,Clear,200,2013-06-11 01:53:00
10:53 PM,61.0,52.0,72,30.00,10.0,South,5.8,-,N/A,,Clear,190,2013-06-11 02:53:00
11:53 PM,59.0,52.0,78,30.00,10.0,SSE,4.6,-,N/A,,Clear,160,2013-06-11 03:53:00